This demonstration page uses our WeatherBlox Daily Observations layout. Learn more.

Left ArrowRight Arrow

Hourly Observations for May 14, 2017

Temp ( °F °C ) Dew Point ( °F °C ) Humidity (%) Winds ( mph kmh ) Pressure ( in mb ) Visibility ( mi km ) Precip ( " mm )
12:15 am 00:15 Clear 64 18 46 8 52 52 S 18 30 29.68 1005 10 16 0.00 0.00
12:35 am 00:35 Clear 64 18 48 9 56 56 S 18 30 29.68 1005 10 16 0.00 0.00
12:55 am 00:55 Clear 64 18 48 9 56 56 S 20 31 29.68 1005 10 16 0.00 0.00
1:15 am 01:15 Clear 63 17 48 9 59 59 S 21 33 29.65 1004 10 16 0.00 0.00
1:35 am 01:35 Clear 63 17 48 9 59 59 S 21 33 29.65 1004 10 16 0.00 0.00
1:55 am 01:55 Clear 63 17 48 9 59 59 S 18 30 29.65 1004 10 16 0.00 0.00
2:15 am 02:15 Clear 63 17 48 9 59 59 S 17 28 29.62 1003 10 16 0.00 0.00
2:35 am 02:35 Clear 63 17 48 9 59 59 S 17 28 29.62 1003 10 16 0.00 0.00
2:55 am 02:55 Clear 61 16 48 9 63 63 S 17 28 29.65 1004 10 16 0.00 0.00
3:15 am 03:15 Clear 61 16 48 9 63 63 S 20 31 29.65 1004 10 16 0.00 0.00
3:35 am 03:35 Clear 61 16 48 9 63 63 S 20 31 29.65 1004 10 16 0.00 0.00
3:55 am 03:55 Clear 61 16 48 9 63 63 S 18 30 29.65 1004 10 16 0.00 0.00
4:15 am 04:15 Clear 61 16 48 9 63 63 S 21 33 29.59 1002 10 16 0.00 0.00
4:35 am 04:35 Clear 61 16 48 9 63 63 S 18 30 29.59 1002 10 16 0.00 0.00
4:55 am 04:55 Clear 59 15 48 9 68 68 S 18 30 29.62 1003 10 16 0.00 0.00
5:15 am 05:15 Clear 59 15 48 9 68 68 S 18 30 29.62 1003 10 16 0.00 0.00
5:35 am 05:35 Clear 59 15 48 9 68 68 S 14 22 29.65 1004 10 16 0.00 0.00
5:55 am 05:55 Clear 57 14 48 9 72 72 S 14 22 29.65 1004 10 16 0.00 0.00
6:15 am 06:15 Clear 57 14 48 9 72 72 S 17 28 29.65 1004 10 16 0.00 0.00
6:35 am 06:35 Sunny 57 14 48 9 72 72 S 14 22 29.65 1004 10 16 0.00 0.00
6:55 am 06:55 Sunny 57 14 48 9 72 72 SSW 10 17 29.68 1005 10 16 0.00 0.00
7:15 am 07:15 Sunny 59 15 48 9 68 68 SSW 14 22 29.65 1004 10 16 0.00 0.00
7:35 am 07:35 Sunny 61 16 48 9 63 63 SSW 14 22 29.65 1004 10 16 0.00 0.00
7:55 am 07:55 Sunny 61 16 48 9 63 63 SSW 13 20 29.68 1005 10 16 0.00 0.00
8:15 am 08:15 Sunny 63 17 48 9 59 59 SSW 13 20 29.65 1004 10 16 0.00 0.00
8:35 am 08:35 Sunny 63 17 50 10 64 64 SSW 9 15 29.65 1004 10 16 0.00 0.00
8:55 am 08:55 Sunny 64 18 50 10 60 60 SSW 13 20 29.65 1004 10 16 0.00 0.00
9:15 am 09:15 Sunny 66 19 50 10 56 56 WSW 9 15 29.65 1004 10 16 0.00 0.00
9:35 am 09:35 Sunny 66 19 50 10 56 56 W 8 13 29.65 1004 10 16 0.00 0.00
9:55 am 09:55 Sunny 70 21 52 11 53 53 NW 12 19 29.62 1003 10 16 0.00 0.00
10:15 am 10:15 Sunny 70 21 52 11 53 53 NNW 13 20 29.62 1003 10 16 0.00 0.00
10:35 am 10:35 Sunny 72 22 54 12 53 53 N 15 24 29.65 1004 10 16 0.00 0.00
10:55 am 10:55 Sunny 73 23 54 12 50 50 N 17 28 29.65 1004 10 16 0.00 0.00
11:15 am 11:15 Sunny 73 23 54 12 50 50 N 16 26 29.65 1004 10 16 0.00 0.00
11:35 am 11:35 Sunny 75 24 54 12 47 47 NNE 17 28 29.65 1004 10 16 0.00 0.00
11:55 am 11:55 Sunny 75 24 54 12 47 47 N 16 26 29.65 1004 10 16 0.00 0.00
12:15 pm 12:15 Sunny 75 24 55 13 50 50 NNE 17 28 29.65 1004 10 16 0.00 0.00
12:35 pm 12:35 Sunny 77 25 55 13 47 47 NNE 13 20 29.62 1003 10 16 0.00 0.00
12:55 pm 12:55 Sunny 79 26 55 13 45 45 N 14 22 29.65 1004 10 16 0.00 0.00
1:15 pm 13:15 Sunny 79 26 57 14 48 48 NNE 10 17 29.65 1004 10 16 0.00 0.00
1:35 pm 13:35 Sunny 79 26 55 13 45 45 N 16 26 29.65 1004 10 16 0.00 0.00
1:55 pm 13:55 Sunny 81 27 55 13 42 42 N 14 22 29.65 1004 10 16 0.00 0.00
2:15 pm 14:15 Sunny 81 27 57 14 45 45 N 13 20 29.65 1004 10 16 0.00 0.00
2:35 pm 14:35 Sunny 82 28 57 14 42 42 N 10 17 29.65 1004 10 16 0.00 0.00
2:55 pm 14:55 Sunny 82 28 57 14 42 42 N 15 24 29.65 1004 10 16 0.00 0.00
3:15 pm 15:15 Sunny 82 28 55 13 40 40 N 13 20 29.65 1004 10 16 0.00 0.00
3:35 pm 15:35 Sunny 82 28 57 14 42 42 N 17 28 29.65 1004 10 16 0.00 0.00
3:55 pm 15:55 Sunny 82 28 57 14 42 42 N 14 22 29.65 1004 10 16 0.00 0.00
4:15 pm 16:15 Sunny 82 28 57 14 42 42 N 18 30 29.65 1004 10 16 0.00 0.00
4:35 pm 16:35 Sunny 82 28 57 14 42 42 N 17 28 29.65 1004 10 16 0.00 0.00
4:55 pm 16:55 Sunny 82 28 57 14 42 42 NNE 15 24 29.65 1004 10 16 0.00 0.00
5:15 pm 17:15 Sunny 82 28 57 14 42 42 N 15 24 29.62 1003 10 16 0.00 0.00
5:35 pm 17:35 Sunny 82 28 57 14 42 42 N 13 20 29.65 1004 10 16 0.00 0.00
5:55 pm 17:55 Sunny 82 28 57 14 42 42 NNE 13 20 29.65 1004 10 16 0.00 0.00
6:15 pm 18:15 Sunny 82 28 57 14 42 42 NNE 10 17 29.65 1004 10 16 0.00 0.00
6:35 pm 18:35 Sunny 81 27 57 14 45 45 NNE 10 17 29.65 1004 10 16 0.00 0.00
6:55 pm 18:55 Sunny 81 27 57 14 45 45 N 10 17 29.65 1004 10 16 0.00 0.00
7:15 pm 19:15 Sunny 79 26 57 14 48 48 NNE 10 17 29.65 1004 10 16 0.00 0.00
7:35 pm 19:35 Sunny 79 26 55 13 45 45 NNE 8 13 29.65 1004 10 16 0.00 0.00
7:55 pm 19:55 Sunny 79 26 55 13 45 45 NE 10 17 29.68 1005 10 16 0.00 0.00
8:15 pm 20:15 Sunny 77 25 55 13 47 47 NNE 7 11 29.71 1006 10 16 0.00 0.00
8:35 pm 20:35 Sunny 75 24 55 13 50 50 NNE 8 13 29.71 1006 10 16 0.00 0.00
8:55 pm 20:55 Clear 72 22 55 13 57 57 NNE 7 11 29.71 1006 10 16 0.00 0.00
9:15 pm 21:15 Clear 70 21 55 13 60 60 NNE 7 11 29.74 1007 10 16 0.00 0.00
9:35 pm 21:35 Clear 70 21 54 12 57 57 NNE 7 11 29.77 1008 10 16 0.00 0.00
9:55 pm 21:55 Clear 68 20 54 12 60 60 NNE 6 9 29.77 1008 10 16 0.00 0.00
10:15 pm 22:15 Clear 64 18 54 12 68 68 NNE 8 13 29.74 1007 10 16 0.00 0.00
10:35 pm 22:35 Clear 64 18 54 12 68 68 NE 6 9 29.74 1007 10 16 0.00 0.00
10:55 pm 22:55 Clear 66 19 54 12 64 64 NE 7 11 29.74 1007 10 16 0.00 0.00
11:15 pm 23:15 Clear 64 18 54 12 68 68 NE 3 6 29.77 1008 10 16 0.00 0.00
11:35 pm 23:35 Clear 66 19 54 12 64 64 NNE 5 7 29.77 1008 10 16 0.00 0.00
11:55 pm 23:55 Clear 66 19 52 11 60 60 NNE 3 6 29.77 1008 10 16 0.00 0.00

Powered by AerisWeather